Location: Boiro
(42.6475°N, 8.8834°W)
Time: 02:43:17
(UTC+01:00)

Vanguard 2 - Pass Details

Date: 08 December 2021
Orbit: 553 x 2936 km, 32.9° (Epoch: 20 January)

Event Time Altitude Azimuth Distance (km) Brightness Sun altitude
Rises 14:01:10 0° 234° (SW) 2,711 11.0 24.1°
Reaches altitude 10° 14:03:37 10° 218° (SW) 1,859 10.7 24.1°
Maximum altitude 14:06:49 22° 166° (SSE) 1,379 10.4 24.0°
Drops below altitude 10° 14:10:38 10° 116° (ESE) 2,269 10.2 23.8°
Sets 14:14:01 0° 102° (ESE) 3,516 10.9 23.7°
